Regional Weather Roundup
Issued by NWS

Home | Current Version | Previous Version | Graphics & Text | Print | Product List | Glossary On
Versions: 1 2 3 4 5 6 7 8 9 10 11 12 13 14 15 16 17 18 19 20 21 22 23 24 25 26 27
000
ASUS45 KTFX 182210
RWRMT
MONTANA REGIONAL WEATHER ROUNDUP
NATIONAL WEATHER SERVICE GREAT FALLS MT
400 PM MDT WED APR 18 2018

NOTE: "FAIR" INDICATES FEW OR NO CLOUDS BELOW 12000 FEET WITH NO
SIGNIFICANT WEATHER AND/OR OBSTRUCTIONS TO VISIBILITY.

MTZ001>007-043-182300-
WEST OF THE DIVIDE

CITY           SKY/WX    TMP DP  RH WIND       PRES   REMARKS
KALISPELL      PTSUNNY   51  24  34 S6        30.17F
MISSOULA       FAIR      52  21  29 E5        30.13F
BUTTE          FAIR      46  15  28 VRB5      30.12F
MULLAN PASS    FAIR      35  21  56 S5        30.13F
ANACONDA         N/A     48  12  23 CALM      30.10F
DEER LODGE       N/A     50  10  20 E6        30.13F
HAMILTON         N/A     52  10  19 MISG      30.11F
PLAINS           N/A     54  23  30 CALM      30.15F
RONAN            N/A     50  19  29 CALM      30.18F
THOMPSON FALLS   N/A     54  23  30 CALM      30.18
$$

MTZ008-052>055-182300-
SOUTHWEST MONTANA

CITY           SKY/WX    TMP DP  RH WIND       PRES   REMARKS
BOZEMAN        FAIR      52  20  28 E8        30.13F
DILLON         FAIR      45  15  30 CALM      30.12F
ENNIS          MOSUNNY   48  14  25 SW9G20    30.16F
W YELLOWSTONE  FAIR      39   9  28 VRB7G21   30.13F
THREE FORKS      N/A     53  20  27 NE5       30.11F
TWIN BRIDGES     N/A     49  16  27 S9        30.11F
$$

MTZ009-010-012-014-046-048-049-054-182300-
EAST SLOPES AND CENTRAL MONTANA

CITY           SKY/WX    TMP DP  RH WIND       PRES   REMARKS
CUT BANK       FAIR      48  15  26 W6        30.15F
GREAT FALLS    FAIR      51  16  24 VRB6      30.16F
HELENA         FAIR      52  20  28 MISG      30.14F
AUGUSTA        FAIR      46  14  27 W8        30.14F
BOWMANS CRNR   FAIR      48  12  24 SW9       30.12F
CHOTEAU          N/A     50  12  22 VRB3      30.16F
FAIRFIELD      FAIR      49  13  23 NW3       30.14F
POWER          FAIR      49  15  25 SW6G17    30.14F
RAYNESFORD     FAIR      51  10  19 W3        30.15F
ULM            FAIR      50  14  23 CALM      30.15F
WHITE SULPHUR    N/A     46  18  31 S12       30.14F
$$

MTZ011-013-016-021-045-047-050-051-182300-
NORTH CENTRAL MONTANA

CITY           SKY/WX    TMP DP  RH WIND       PRES   REMARKS
HAVRE          FAIR      53  22  29 VRB7      30.20F
LEWISTOWN      FAIR      51  13  21 VRB5      30.17F
N BAR RANCH    FAIR      50  14  23 NE8G16    30.19S
CHINOOK          N/A     54  27  35 W5        30.20F
GEYSER         FAIR      49  16  26 NE3       30.15F
GRASS RANGE    PTSUNNY   50  18  27 CALM      30.15F
STANFORD       FAIR      48  14  25 N6        30.15F
$$

MTZ017>020-022>027-061-062-182300-
NORTHEAST MONTANA

CITY           SKY/WX    TMP DP  RH WIND       PRES   REMARKS
GLASGOW        CLOUDY    56  33  42 N9        30.21F
GLENDIVE       PTSUNNY   56  29  35 N16G22    30.20S
JORDAN           N/A     54  29  38 SW6       30.19F
MALTA          SUNNY     52  34  50 E3        30.20S
SIDNEY         FAIR      54  33  45 N16G22    30.22S
WOLF POINT     FAIR      58  34  40 NW10      30.22F
PLENTYWOOD       N/A     45  39  81 N9        30.25R
POPLAR           N/A     52  34  50 N9        30.23S
SCOBEY           N/A     47  30  51 N12       30.22R
$$

MTZ028>42-056>058-182300-
SOUTHCENTRAL AND SOUTHEAST MONTANA

CITY           SKY/WX    TMP DP  RH WIND       PRES   REMARKS
BAKER          PTSUNNY   56  31  38 N20       30.19S
BILLINGS       FAIR      54  20  26 NE8       30.18F
LIVINGSTON     FAIR      53  17  24 W3        30.12F
MILES CITY     FAIR      56  30  37 VRB5      30.20F
BIG TIMBER     SUNNY     52  14  22 NE6G13    30.15F
EKALAKA          N/A     54  23  30 W10       30.15
FORSYTH          N/A     55  21  26 W3        30.20S
HARLOWTON      FAIR      50  14  23 NW10      30.16F
LAUREL           N/A     55  14  19 VRB7      30.18F
ROUNDUP          N/A     55  15  20 SW3       30.08F
$$

REGIONAL REPORTS...DAKOTAS

CITY           SKY/WX    TMP DP  RH WIND       PRES   REMARKS
WILLISTON      FAIR      49  36  61 N12       30.24R
MINOT          CLOUDY    47  35  63 NW7       30.22R
DICKINSON      FAIR      52  32  46 N10       30.17S
BEACH          FAIR      55  30  38 N20       30.22S
CROSBY         CLOUDY    39  39 100 NE6       30.26R
TIOGA          FAIR      39  39 100 N6        30.24S
WATFORD CITY   PTSUNNY   52  34  50 N7        30.21R
BISMARCK       FAIR      51  32  48 N12       30.21R
GRAND FORKS    PTSUNNY   49  29  46 NE13      30.17S
FARGO          FAIR      52  33  48 NE20G28   30.12R
BUFFALO SD       N/A     54  26  34 NW18      30.11
RAPID CITY     PTSUNNY   52  25  35 NW24      30.18S
$$

REGIONAL REPORTS...WYOMING/IDAHO/WASHINGTON

CITY           SKY/WX    TMP DP  RH WIND       PRES   REMARKS
GILLETTE         N/A     52  21  29 N7G20     30.20F
SHERIDAN       FAIR      53  22  29 VRB6      30.21F
BUFFALO WY     PTSUNNY   48  19  31 SW5       30.22F
CODY           FAIR      50  18  28 S8        30.16F
YELLOWSTONE LA   N/A     36  17  46 VRB3      30.18F
IDAHO FALLS    FAIR      50  16  25 N8        30.14F
BOISE          FAIR      61  20  20 S17       30.01F
SPOKANE        PTSUNNY   52  25  35 E9        30.16F
$$

REGIONAL REPORTS...ALBERTA

CITY           SKY/WX    TMP DP  RH WIND       PRES   REMARKS
CALGARY        MOSUNNY   46  21  36 SE13      30.12F
CARDSTON         N/A     50  19  29 W5          N/A
EDMONTON       MOSUNNY   45  21  39 N2        30.13S
FORT MCMURRAY  MOSUNNY   45  21  39 W3        30.05F
HIGH LEVEL     MOSUNNY   45  12  26 VRB5      29.95S
LETHBRIDGE     MOSUNNY   52  21  30 SW14G22   30.14F
LLOYDMINSTER   MOSUNNY   45  30  57 W8        30.17R
MEDICINE HAT   MOSUNNY   55  21  26 SW15G22   30.16S
MILK RIVER       N/A     52  25  35 S13G20      N/A
ONEFOUR          N/A     48  30  49 E10         N/A
PEACE RIVER    MOSUNNY   41  25  52 SW13      30.03S
PINCHER CREEK  SUNNY     46  25  42 W13G21    30.13F
WATERTON GATE    N/A     45  21  39 SW13G21     N/A
$$

REGIONAL REPORTS...SASKATCHEWAN

CITY           SKY/WX    TMP DP  RH WIND       PRES   REMARKS
CORONACH         N/A     45  32  61 N10         N/A
CYPRESS HILLS    N/A     39  28  65 S9          N/A
ESTEVAN        CLOUDY    39  36  87 NW8       30.25R
MOOSE JAW        N/A     45  32  61 E7          N/A
PRINCE ALBERT  MOSUNNY   45  28  53 SW12G18   30.20R
REGINA         MOSUNNY   39  36  87 CALM      30.27R
ROCKGLEN         N/A     43  27  52 N7          N/A
SASKATOON      SUNNY     48  34  57 SW10      30.24S
SWIFT CURRENT  SUNNY     48  25  40 S7        30.23S
VAL MARIE        N/A     50  28  43 NW5         N/A
$$




USA.gov is the U.S. government's official web portal to all federal, state and local government web resources and services.